• Em Portugal
  • Lista de países
  • Para 7 dias
  • Temperatura da água
  • Mapas de satélite
  • Mapa do tempo
  • Widgets de tempo
  • user-avatar
    Iniciar Sessão

    Previsão horária em Jodlowka

    Hoje, 18 Agosto, Sábado

    Tempo Temperatura Precipitação Vento Pressão Humidade
    00:00 +20°C° 0 mm 2 m/s 759 mmHg 79%
    01:00 +19°C° 0 mm 2 m/s 759 mmHg 79%
    02:00 +19°C° 0 mm 2 m/s 759 mmHg 80%
    03:00 +19°C° 0 mm 2 m/s 759 mmHg 81%
    04:00 +19°C° 0 mm 2 m/s 759 mmHg 82%
    05:00 +20°C° 0 mm 2 m/s 759 mmHg 80%
    06:00 +21°C° 0 mm 2 m/s 759 mmHg 78%
    07:00 +21°C° 0 mm 2 m/s 759 mmHg 76%
    08:00 +24°C° 0,4 mm 2 m/s 760 mmHg 72%
    09:00 +25°C° 0,4 mm 2 m/s 760 mmHg 68%
    10:00 +26°C° 0,4 mm 2 m/s 760 mmHg 64%
    11:00 +27°C° 1,1 mm 2 m/s 760 mmHg 63%
    12:00 +27°C° 1,1 mm 2 m/s 760 mmHg 61%
    13:00 +27°C° 1,1 mm 3 m/s 760 mmHg 60%
    14:00 +27°C° 0,1 mm 3 m/s 760 mmHg 61%
    15:00 +27°C° 0,1 mm 3 m/s 760 mmHg 62%
    16:00 +26°C° 0,1 mm 3 m/s 760 mmHg 64%
    17:00 +25°C° 0,2 mm 3 m/s 760 mmHg 69%
    18:00 +22°C° 0,2 mm 3 m/s 760 mmHg 75%
    19:00 +20°C° 0,2 mm 3 m/s 761 mmHg 80%
    20:00 +19°C° 0 mm 2 m/s 761 mmHg 80%
    21:00 +19°C° 0 mm 2 m/s 761 mmHg 81%
    22:00 +18°C° 0 mm 2 m/s 761 mmHg 81%
    23:00 +17°C° 0 mm 2 m/s 761 mmHg 81%

    Amanhã, 19 Agosto, Domingo

    Tempo Temperatura Precipitação Vento Pressão Humidade
    00:00 +17°C° 0 mm 2 m/s 761 mmHg 81%
    01:00 +16°C° 0 mm 1 m/s 761 mmHg 81%
    02:00 +16°C° 0 mm 1 m/s 761 mmHg 81%
    03:00 +16°C° 0 mm 2 m/s 761 mmHg 81%
    04:00 +16°C° 0 mm 2 m/s 761 mmHg 81%
    05:00 +17°C° 0 mm 2 m/s 761 mmHg 78%
    06:00 +18°C° 0 mm 2 m/s 762 mmHg 74%
    07:00 +19°C° 0 mm 3 m/s 762 mmHg 70%
    08:00 +21°C° 0 mm 3 m/s 762 mmHg 63%
    09:00 +24°C° 0 mm 3 m/s 762 mmHg 56%
    10:00 +25°C° 0 mm 3 m/s 762 mmHg 49%
    11:00 +26°C° 0 mm 3 m/s 762 mmHg 48%
    12:00 +27°C° 0 mm 3 m/s 761 mmHg 46%
    13:00 +28°C° 0 mm 3 m/s 761 mmHg 44%
    14:00 +28°C° 0 mm 3 m/s 761 mmHg 46%
    15:00 +28°C° 0 mm 3 m/s 761 mmHg 47%
    16:00 +27°C° 0 mm 3 m/s 760 mmHg 49%
    17:00 +26°C° 0 mm 2 m/s 760 mmHg 57%
    18:00 +24°C° 0 mm 2 m/s 760 mmHg 65%
    19:00 +21°C° 0 mm 2 m/s 760 mmHg 73%
    20:00 +20°C° 0 mm 2 m/s 760 mmHg 77%
    21:00 +19°C° 0 mm 2 m/s 760 mmHg 81%
    22:00 +20°C° 0 mm 1 m/s 760 mmHg 85%
    23:00 +19°C° 0 mm 1 m/s 760 mmHg 85%

    Depois de amanhã, 20 Agosto, Segunda-feira

    Tempo Temperatura Precipitação Vento Pressão Humidade
    00:00 +19°C° 0 mm 1 m/s 760 mmHg 85%
    01:00 +19°C° 0 mm 1 m/s 760 mmHg 86%
    02:00 +19°C° 0 mm 1 m/s 760 mmHg 84%
    03:00 +19°C° 0 mm 1 m/s 759 mmHg 83%
    04:00 +19°C° 0 mm 1 m/s 759 mmHg 82%
    05:00 +20°C° 0 mm 1 m/s 759 mmHg 78%
    06:00 +20°C° 0 mm 2 m/s 759 mmHg 75%
    07:00 +21°C° 0 mm 2 m/s 759 mmHg 72%
    08:00 +24°C° 0 mm 2 m/s 759 mmHg 66%
    09:00 +25°C° 0 mm 2 m/s 759 mmHg 60%
    10:00 +27°C° 0 mm 2 m/s 759 mmHg 54%
    11:00 +28°C° 0 mm 2 m/s 759 mmHg 51%
    12:00 +28°C° 0 mm 3 m/s 758 mmHg 48%
    13:00 +29°C° 0 mm 3 m/s 758 mmHg 45%
    14:00 +29°C° 0 mm 3 m/s 758 mmHg 47%
    15:00 +29°C° 0 mm 3 m/s 757 mmHg 48%
    16:00 +29°C° 0 mm 2 m/s 757 mmHg 49%
    17:00 +27°C° 0 mm 2 m/s 757 mmHg 55%
    18:00 +26°C° 0 mm 2 m/s 757 mmHg 61%
    19:00 +24°C° 0 mm 2 m/s 757 mmHg 67%
    20:00 +23°C° 0,1 mm 2 m/s 757 mmHg 72%
    21:00 +22°C° 0,1 mm 1 m/s 757 mmHg 78%
    22:00 +21°C° 0,1 mm 1 m/s 757 mmHg 83%
    23:00 +21°C° 0,1 mm 1 m/s 756 mmHg 83%

    21 Agosto, Terça-feira

    Tempo Temperatura Precipitação Vento Pressão Humidade
    00:00 +21°C° 0,1 mm 1 m/s 756 mmHg 83%
    01:00 +21°C° 0,1 mm 1 m/s 756 mmHg 83%
    02:00 +20°C° 0,1 mm 2 m/s 756 mmHg 85%
    03:00 +19°C° 0,1 mm 2 m/s 756 mmHg 86%
    04:00 +19°C° 0,1 mm 3 m/s 756 mmHg 87%
    05:00 +19°C° 0 mm 3 m/s 756 mmHg 85%
    06:00 +20°C° 0 mm 4 m/s 756 mmHg 83%
    07:00 +20°C° 0 mm 5 m/s 756 mmHg 81%
    08:00 +21°C° 0 mm 5 m/s 757 mmHg 76%
    09:00 +22°C° 0 mm 5 m/s 757 mmHg 70%
    10:00 +23°C° 0 mm 5 m/s 757 mmHg 65%
    11:00 +25°C° 0 mm 5 m/s 757 mmHg 60%
    12:00 +25°C° 0 mm 5 m/s 757 mmHg 55%
    13:00 +26°C° 0 mm 5 m/s 757 mmHg 50%
    14:00 +26°C° 0 mm 5 m/s 757 mmHg 50%
    15:00 +25°C° 0 mm 5 m/s 758 mmHg 50%
    16:00 +25°C° 0 mm 5 m/s 758 mmHg 50%
    17:00 +23°C° 0 mm 4 m/s 758 mmHg 57%
    18:00 +21°C° 0 mm 3 m/s 758 mmHg 64%
    19:00 +20°C° 0 mm 2 m/s 758 mmHg 71%
    20:00 +19°C° 0 mm 2 m/s 758 mmHg 73%
    21:00 +19°C° 0 mm 2 m/s 758 mmHg 76%
    22:00 +18°C° 0 mm 2 m/s 758 mmHg 78%
    23:00 +18°C° 0 mm 2 m/s 758 mmHg 78%

    22 Agosto, Quarta-feira

    Tempo Temperatura Precipitação Vento Pressão Humidade
    00:00 +18°C° 0 mm 3 m/s 758 mmHg 79%
    01:00 +18°C° 0 mm 3 m/s 758 mmHg 79%
    02:00 +18°C° 0 mm 3 m/s 758 mmHg 80%
    03:00 +18°C° 0 mm 3 m/s 758 mmHg 80%
    04:00 +18°C° 0 mm 3 m/s 758 mmHg 81%
    05:00 +18°C° 0 mm 3 m/s 758 mmHg 79%
    06:00 +19°C° 0 mm 3 m/s 758 mmHg 77%
    07:00 +20°C° 0 mm 3 m/s 758 mmHg 75%
    08:00 +21°C° 0,1 mm 4 m/s 758 mmHg 71%
    09:00 +22°C° 0,1 mm 4 m/s 758 mmHg 67%
    10:00 +23°C° 0,1 mm 5 m/s 758 mmHg 64%
    11:00 +25°C° 0,1 mm 5 m/s 758 mmHg 60%
    12:00 +26°C° 0,1 mm 5 m/s 758 mmHg 57%
    13:00 +27°C° 0,1 mm 6 m/s 758 mmHg 54%
    14:00 +26°C° 0,1 mm 6 m/s 758 mmHg 55%
    15:00 +26°C° 0,1 mm 5 m/s 757 mmHg 55%
    16:00 +26°C° 0,1 mm 5 m/s 757 mmHg 56%
    17:00 +23°C° 0 mm 4 m/s 758 mmHg 60%
    18:00 +22°C° 0 mm 4 m/s 758 mmHg 65%
    19:00 +20°C° 0 mm 3 m/s 758 mmHg 70%
    20:00 +19°C° 0 mm 3 m/s 758 mmHg 73%
    21:00 +19°C° 0 mm 3 m/s 758 mmHg 76%
    22:00 +18°C° 0 mm 3 m/s 759 mmHg 80%
    23:00 +17°C° 0 mm 3 m/s 759 mmHg 83%

    23 Agosto, Quinta-feira

    Tempo Temperatura Precipitação Vento Pressão Humidade
    00:00 +16°C° 0 mm 3 m/s 759 mmHg 86%
    01:00 +16°C° 0 mm 3 m/s 759 mmHg 89%
    02:00 +14°C° 0 mm 3 m/s 759 mmHg 90%
    03:00 +14°C° 0 mm 3 m/s 759 mmHg 91%
    04:00 +15°C° 0 mm 2 m/s 759 mmHg 92%
    05:00 +16°C° 0 mm 3 m/s 759 mmHg 87%
    06:00 +17°C° 0 mm 3 m/s 760 mmHg 81%
    07:00 +18°C° 0 mm 3 m/s 760 mmHg 75%
    08:00 +19°C° 0 mm 3 m/s 760 mmHg 68%
    09:00 +20°C° 0 mm 3 m/s 760 mmHg 61%
    10:00 +21°C° 0 mm 3 m/s 760 mmHg 54%
    11:00 +22°C° 0 mm 3 m/s 760 mmHg 51%
    12:00 +23°C° 0 mm 2 m/s 760 mmHg 49%
    13:00 +24°C° 0 mm 2 m/s 760 mmHg 46%
    14:00 +24°C° 0 mm 2 m/s 760 mmHg 48%
    15:00 +24°C° 0 mm 3 m/s 760 mmHg 49%
    16:00 +22°C° 0 mm 3 m/s 759 mmHg 51%
    17:00 +21°C° 0 mm 3 m/s 759 mmHg 59%
    18:00 +19°C° 0 mm 3 m/s 759 mmHg 67%
    19:00 +17°C° 0 mm 3 m/s 759 mmHg 75%
    20:00 +17°C° 0 mm 3 m/s 760 mmHg 78%
    21:00 +16°C° 0 mm 2 m/s 760 mmHg 81%
    22:00 +15°C° 0 mm 2 m/s 760 mmHg 85%
    23:00 +15°C° 0 mm 2 m/s 760 mmHg 86%
    Mostrar mais